When you browse on this site, cookies collect data to enhance your experience and personalize the content and advertising you see.
Visit our Privacy Policy to learn more. By continuing to use the site, you agree to this use of cookies and data.
  • în România
  • Lista ţărilor
  • Pe 7 zile
  • Temperatura apei
  • Hartă satelitară
  • Meteo pe hartă
  • Widget-uri
  • user-avatar
    Intrare

    Meteo pe oră la Arneburg

    Astăzi, 24 Aprilie, Miercuri

    Timp Temperatura Precipitaţii Vânt Presiune Umiditate
    00:00 +11°C° 0 mm 6 m/s 751 mmHg 69%
    01:00 +10°C° 0 mm 3 m/s 751 mmHg 76%
    02:00 +10°C° 0 mm 4 m/s 751 mmHg 76%
    03:00 +9°C° 0 mm 5 m/s 751 mmHg 76%
    04:00 +9°C° 0 mm 5 m/s 751 mmHg 75%
    05:00 +10°C° 0 mm 5 m/s 751 mmHg 76%
    06:00 +10°C° 0 mm 5 m/s 751 mmHg 76%
    07:00 +12°C° 0 mm 4 m/s 751 mmHg 76%
    08:00 +14°C° 0 mm 5 m/s 751 mmHg 72%
    09:00 +15°C° 0 mm 5 m/s 751 mmHg 68%
    10:00 +17°C° 0 mm 5 m/s 751 mmHg 64%
    11:00 +19°C° 0 mm 5 m/s 751 mmHg 61%
    12:00 +21°C° 0 mm 5 m/s 751 mmHg 57%
    13:00 +22°C° 0 mm 5 m/s 751 mmHg 54%
    14:00 +22°C° 0 mm 5 m/s 751 mmHg 53%
    15:00 +23°C° 0 mm 5 m/s 751 mmHg 53%
    16:00 +23°C° 0 mm 5 m/s 751 mmHg 53%
    17:00 +22°C° 0 mm 4 m/s 751 mmHg 59%
    18:00 +20°C° 0 mm 4 m/s 751 mmHg 65%
    19:00 +19°C° 0 mm 3 m/s 751 mmHg 70%
    20:00 +18°C° 0 mm 4 m/s 751 mmHg 72%
    21:00 +17°C° 0 mm 4 m/s 751 mmHg 73%
    22:00 +15°C° 0 mm 4 m/s 751 mmHg 74%
    23:00 +15°C° 0.4 mm 4 m/s 751 mmHg 80%

    Mâine, 25 Aprilie, Joi

    Timp Temperatura Precipitaţii Vânt Presiune Umiditate
    00:00 +14°C° 0.4 mm 4 m/s 752 mmHg 85%
    01:00 +13°C° 0.4 mm 3 m/s 752 mmHg 91%
    02:00 +13°C° 0.3 mm 3 m/s 753 mmHg 91%
    03:00 +12°C° 0.3 mm 3 m/s 753 mmHg 91%
    04:00 +11°C° 0.3 mm 3 m/s 753 mmHg 91%
    05:00 +11°C° 0 mm 3 m/s 754 mmHg 89%
    06:00 +12°C° 0 mm 2 m/s 754 mmHg 87%
    07:00 +13°C° 0 mm 2 m/s 755 mmHg 85%
    08:00 +15°C° 0 mm 2 m/s 755 mmHg 75%
    09:00 +17°C° 0 mm 2 m/s 756 mmHg 65%
    10:00 +19°C° 0 mm 3 m/s 756 mmHg 55%
    11:00 +20°C° 0 mm 2 m/s 756 mmHg 50%
    12:00 +23°C° 0 mm 2 m/s 756 mmHg 45%
    13:00 +24°C° 0 mm 2 m/s 756 mmHg 40%
    14:00 +24°C° 0 mm 2 m/s 756 mmHg 40%
    15:00 +24°C° 0 mm 2 m/s 755 mmHg 40%
    16:00 +25°C° 0 mm 2 m/s 755 mmHg 40%
    17:00 +23°C° 0 mm 2 m/s 755 mmHg 46%
    18:00 +20°C° 0 mm 2 m/s 755 mmHg 52%
    19:00 +18°C° 0 mm 2 m/s 755 mmHg 59%
    20:00 +17°C° 0 mm 2 m/s 755 mmHg 59%
    21:00 +16°C° 0 mm 2 m/s 755 mmHg 59%
    22:00 +14°C° 0 mm 3 m/s 755 mmHg 60%
    23:00 +14°C° 0 mm 3 m/s 755 mmHg 64%

    Poimâine, 26 Aprilie, Vineri

    Timp Temperatura Precipitaţii Vânt Presiune Umiditate
    00:00 +13°C° 0 mm 3 m/s 754 mmHg 68%
    01:00 +13°C° 0 mm 4 m/s 754 mmHg 72%
    02:00 +13°C° 0 mm 3 m/s 754 mmHg 79%
    03:00 +13°C° 0 mm 3 m/s 753 mmHg 85%
    04:00 +13°C° 0 mm 3 m/s 753 mmHg 91%
    05:00 +13°C° 0.1 mm 3 m/s 753 mmHg 90%
    06:00 +14°C° 0.1 mm 3 m/s 753 mmHg 88%
    07:00 +15°C° 0.1 mm 4 m/s 753 mmHg 87%
    08:00 +17°C° 0.5 mm 3 m/s 753 mmHg 83%
    09:00 +19°C° 0.5 mm 3 m/s 753 mmHg 79%
    10:00 +20°C° 0.5 mm 2 m/s 753 mmHg 74%
    11:00 +19°C° 0.6 mm 3 m/s 753 mmHg 78%
    12:00 +18°C° 0.6 mm 4 m/s 753 mmHg 81%
    13:00 +16°C° 0.6 mm 5 m/s 753 mmHg 84%
    14:00 +16°C° 0.1 mm 6 m/s 753 mmHg 83%
    15:00 +15°C° 0.1 mm 6 m/s 754 mmHg 82%
    16:00 +14°C° 0.1 mm 7 m/s 754 mmHg 81%
    17:00 +13°C° 0 mm 6 m/s 754 mmHg 80%
    18:00 +11°C° 0 mm 6 m/s 755 mmHg 79%
    19:00 +11°C° 0 mm 6 m/s 755 mmHg 79%
    20:00 +10°C° 0 mm 5 m/s 756 mmHg 78%
    21:00 +10°C° 0 mm 5 m/s 756 mmHg 78%
    22:00 +10°C° 0 mm 4 m/s 756 mmHg 78%
    23:00 +10°C° 0 mm 4 m/s 756 mmHg 78%

    27 Aprilie, Sâmbătă

    Timp Temperatura Precipitaţii Vânt Presiune Umiditate
    00:00 +10°C° 0 mm 4 m/s 756 mmHg 79%
    01:00 +10°C° 0 mm 3 m/s 756 mmHg 80%
    02:00 +10°C° 0.1 mm 3 m/s 756 mmHg 84%
    03:00 +10°C° 0.1 mm 3 m/s 756 mmHg 87%
    04:00 +9°C° 0.1 mm 2 m/s 756 mmHg 91%
    05:00 +10°C° 0 mm 2 m/s 756 mmHg 88%
    06:00 +10°C° 0 mm 2 m/s 756 mmHg 85%
    07:00 +12°C° 0 mm 2 m/s 757 mmHg 82%
    08:00 +13°C° 0 mm 2 m/s 756 mmHg 76%
    09:00 +14°C° 0 mm 3 m/s 756 mmHg 71%
    10:00 +16°C° 0 mm 3 m/s 756 mmHg 65%
    11:00 +17°C° 0.1 mm 2 m/s 756 mmHg 61%
    12:00 +18°C° 0.1 mm 2 m/s 755 mmHg 57%
    13:00 +18°C° 0.1 mm 2 m/s 755 mmHg 52%
    14:00 +18°C° 0.5 mm 2 m/s 755 mmHg 56%
    15:00 +18°C° 0.5 mm 2 m/s 755 mmHg 60%
    16:00 +17°C° 0.5 mm 2 m/s 755 mmHg 63%
    17:00 +16°C° 0.5 mm 2 m/s 755 mmHg 71%
    18:00 +14°C° 0.5 mm 2 m/s 755 mmHg 80%
    19:00 +13°C° 0.5 mm 2 m/s 755 mmHg 88%
    20:00 +12°C° 0 mm 2 m/s 756 mmHg 90%
    21:00 +12°C° 0 mm 2 m/s 756 mmHg 92%
    22:00 +10°C° 0 mm 2 m/s 756 mmHg 94%
    23:00 +9°C° 0 mm 2 m/s 756 mmHg 94%

    28 Aprilie, Duminică

    Timp Temperatura Precipitaţii Vânt Presiune Umiditate
    00:00 +9°C° 0 mm 2 m/s 757 mmHg 94%
    01:00 +8°C° 0 mm 2 m/s 757 mmHg 94%
    02:00 +8°C° 0 mm 2 m/s 757 mmHg 93%
    03:00 +7°C° 0 mm 2 m/s 757 mmHg 93%
    04:00 +7°C° 0 mm 2 m/s 758 mmHg 93%
    05:00 +7°C° 0 mm 2 m/s 758 mmHg 91%
    06:00 +8°C° 0 mm 2 m/s 758 mmHg 90%
    07:00 +9°C° 0 mm 2 m/s 759 mmHg 88%
    08:00 +12°C° 0 mm 2 m/s 759 mmHg 82%
    09:00 +13°C° 0 mm 2 m/s 759 mmHg 76%
    10:00 +15°C° 0 mm 2 m/s 759 mmHg 69%
    11:00 +16°C° 0.2 mm 2 m/s 759 mmHg 67%
    12:00 +17°C° 0.2 mm 2 m/s 759 mmHg 64%
    13:00 +18°C° 0.2 mm 2 m/s 759 mmHg 61%
    14:00 +17°C° 0.8 mm 2 m/s 760 mmHg 64%
    15:00 +17°C° 0.8 mm 2 m/s 760 mmHg 68%
    16:00 +17°C° 0.8 mm 2 m/s 760 mmHg 71%
    17:00 +16°C° 0.6 mm 2 m/s 760 mmHg 76%
    18:00 +15°C° 0.6 mm 2 m/s 760 mmHg 81%
    19:00 +14°C° 0.6 mm 2 m/s 761 mmHg 86%
    20:00 +13°C° 0 mm 2 m/s 761 mmHg 87%
    21:00 +12°C° 0 mm 2 m/s 761 mmHg 89%
    22:00 +10°C° 0 mm 2 m/s 762 mmHg 90%
    23:00 +9°C° 0 mm 2 m/s 762 mmHg 89%

    29 Aprilie, Luni

    Timp Temperatura Precipitaţii Vânt Presiune Umiditate
    00:00 +8°C° 0 mm 2 m/s 762 mmHg 89%
    01:00 +8°C° 0 mm 2 m/s 762 mmHg 88%
    02:00 +8°C° 0 mm 2 m/s 762 mmHg 90%
    03:00 +8°C° 0 mm 2 m/s 762 mmHg 92%
    04:00 +8°C° 0 mm 2 m/s 762 mmHg 94%
    05:00 +8°C° 0 mm 3 m/s 762 mmHg 93%
    06:00 +9°C° 0 mm 3 m/s 762 mmHg 92%
    07:00 +9°C° 0 mm 3 m/s 762 mmHg 91%
    08:00 +10°C° 0 mm 4 m/s 762 mmHg 88%
    09:00 +11°C° 0 mm 4 m/s 762 mmHg 85%
    10:00 +12°C° 0 mm 4 m/s 762 mmHg 82%
    11:00 +12°C° 0 mm 5 m/s 762 mmHg 80%
    12:00 +12°C° 0 mm 5 m/s 762 mmHg 78%
    13:00 +12°C° 0 mm 5 m/s 762 mmHg 76%
    14:00 +12°C° 0 mm 5 m/s 762 mmHg 78%
    15:00 +10°C° 0 mm 5 m/s 762 mmHg 79%
    16:00 +10°C° 0 mm 5 m/s 762 mmHg 81%
    17:00 +11°C° 0.1 mm 4 m/s 762 mmHg 84%
    18:00 +10°C° 0.1 mm 4 m/s 762 mmHg 86%
    19:00 +10°C° 0.1 mm 3 m/s 762 mmHg 89%
    20:00 +9°C° 0.3 mm 3 m/s 762 mmHg 91%
    21:00 +9°C° 0.3 mm 3 m/s 762 mmHg 93%
    22:00 +8°C° 0.3 mm 3 m/s 762 mmHg 95%
    23:00 +8°C° 0.2 mm 3 m/s 762 mmHg 95%
    Arată mai mult